When you browse on this site, cookies collect data to enhance your experience and personalize the content and advertising you see.
Visit our Privacy Policy to learn more. By continuing to use the site, you agree to this use of cookies and data.
  • în România
  • Lista ţărilor
  • Pe 7 zile
  • Temperatura apei
  • Hartă satelitară
  • Meteo pe hartă
  • Widget-uri
  • user-avatar
    Intrare

    Meteo pe oră la Yandyganovo

    Astăzi, 20 Mai, Luni

    Timp Temperatura Precipitaţii Vânt Presiune Umiditate
    00:00 0°C° 0 mm 3 m/s 747 mmHg 92%
    01:00 0°C° 0 mm 3 m/s 747 mmHg 93%
    02:00 0°C° 0 mm 3 m/s 748 mmHg 94%
    03:00 -1°C° 0 mm 3 m/s 748 mmHg 95%
    04:00 -1°C° 0 mm 3 m/s 748 mmHg 96%
    05:00 0°C° 0 mm 3 m/s 748 mmHg 93%
    06:00 +1°C° 0 mm 4 m/s 748 mmHg 89%
    07:00 +3°C° 0 mm 4 m/s 748 mmHg 86%
    08:00 +4°C° 0.1 mm 4 m/s 748 mmHg 82%
    09:00 +5°C° 0.1 mm 5 m/s 748 mmHg 78%
    10:00 +6°C° 0 mm 5 m/s 748 mmHg 74%
    11:00 +6°C° 0.3 mm 5 m/s 748 mmHg 71%
    12:00 +7°C° 0.3 mm 5 m/s 748 mmHg 68%
    13:00 +8°C° 0.3 mm 5 m/s 748 mmHg 65%
    14:00 +8°C° 0.3 mm 5 m/s 748 mmHg 63%
    15:00 +8°C° 0.3 mm 5 m/s 748 mmHg 61%
    16:00 +8°C° 0 mm 5 m/s 749 mmHg 58%
    17:00 +8°C° 0.2 mm 4 m/s 749 mmHg 61%
    18:00 +9°C° 0.2 mm 3 m/s 749 mmHg 65%
    19:00 +8°C° 0.2 mm 2 m/s 749 mmHg 68%
    20:00 +7°C° 0 mm 2 m/s 749 mmHg 72%
    21:00 +6°C° 0 mm 2 m/s 749 mmHg 75%
    22:00 +5°C° 0 mm 2 m/s 749 mmHg 79%
    23:00 +4°C° 0 mm 2 m/s 749 mmHg 81%

    Mâine, 21 Mai, Marţi

    Timp Temperatura Precipitaţii Vânt Presiune Umiditate
    00:00 +3°C° 0 mm 2 m/s 750 mmHg 83%
    01:00 +3°C° 0 mm 2 m/s 750 mmHg 84%
    02:00 +3°C° 0 mm 2 m/s 750 mmHg 84%
    03:00 +3°C° 0 mm 2 m/s 750 mmHg 84%
    04:00 +3°C° 0 mm 2 m/s 750 mmHg 83%
    05:00 +4°C° 0 mm 2 m/s 750 mmHg 79%
    06:00 +4°C° 0 mm 3 m/s 750 mmHg 74%
    07:00 +7°C° 0 mm 3 m/s 751 mmHg 70%
    08:00 +7°C° 0 mm 4 m/s 751 mmHg 62%
    09:00 +8°C° 0 mm 5 m/s 751 mmHg 53%
    10:00 +10°C° 0 mm 6 m/s 751 mmHg 45%
    11:00 +10°C° 0 mm 6 m/s 751 mmHg 44%
    12:00 +10°C° 0 mm 6 m/s 751 mmHg 43%
    13:00 +11°C° 0 mm 6 m/s 751 mmHg 42%
    14:00 +11°C° 0 mm 6 m/s 751 mmHg 42%
    15:00 +11°C° 0 mm 6 m/s 751 mmHg 42%
    16:00 +13°C° 0 mm 5 m/s 751 mmHg 42%
    17:00 +12°C° 0 mm 5 m/s 751 mmHg 47%
    18:00 +11°C° 0 mm 4 m/s 751 mmHg 52%
    19:00 +11°C° 0 mm 3 m/s 751 mmHg 58%
    20:00 +9°C° 0 mm 3 m/s 751 mmHg 60%
    21:00 +8°C° 0 mm 2 m/s 752 mmHg 63%
    22:00 +6°C° 0 mm 2 m/s 752 mmHg 66%
    23:00 +6°C° 0 mm 2 m/s 752 mmHg 67%

    Poimâine, 22 Mai, Miercuri

    Timp Temperatura Precipitaţii Vânt Presiune Umiditate
    00:00 +5°C° 0 mm 2 m/s 752 mmHg 69%
    01:00 +4°C° 0 mm 2 m/s 752 mmHg 71%
    02:00 +4°C° 0 mm 2 m/s 752 mmHg 73%
    03:00 +3°C° 0 mm 2 m/s 752 mmHg 74%
    04:00 +3°C° 0 mm 2 m/s 752 mmHg 76%
    05:00 +4°C° 0 mm 2 m/s 752 mmHg 72%
    06:00 +5°C° 0 mm 3 m/s 752 mmHg 69%
    07:00 +8°C° 0 mm 3 m/s 752 mmHg 65%
    08:00 +9°C° 0 mm 3 m/s 752 mmHg 58%
    09:00 +11°C° 0 mm 3 m/s 752 mmHg 51%
    10:00 +13°C° 0 mm 4 m/s 752 mmHg 45%
    11:00 +14°C° 0 mm 4 m/s 751 mmHg 43%
    12:00 +14°C° 0 mm 4 m/s 751 mmHg 41%
    13:00 +15°C° 0 mm 4 m/s 751 mmHg 39%
    14:00 +15°C° 0 mm 4 m/s 751 mmHg 39%
    15:00 +15°C° 0 mm 4 m/s 750 mmHg 40%
    16:00 +17°C° 0 mm 4 m/s 750 mmHg 41%
    17:00 +16°C° 0 mm 3 m/s 750 mmHg 47%
    18:00 +15°C° 0 mm 2 m/s 749 mmHg 53%
    19:00 +15°C° 0 mm 2 m/s 749 mmHg 59%
    20:00 +14°C° 0 mm 2 m/s 749 mmHg 61%
    21:00 +13°C° 0 mm 2 m/s 749 mmHg 62%
    22:00 +12°C° 0 mm 2 m/s 749 mmHg 63%
    23:00 +10°C° 0 mm 2 m/s 749 mmHg 70%

    23 Mai, Joi

    Timp Temperatura Precipitaţii Vânt Presiune Umiditate
    00:00 +10°C° 0 mm 2 m/s 749 mmHg 76%
    01:00 +9°C° 0 mm 2 m/s 748 mmHg 82%
    02:00 +9°C° 0 mm 3 m/s 748 mmHg 86%
    03:00 +8°C° 0 mm 3 m/s 747 mmHg 90%
    04:00 +7°C° 0 mm 3 m/s 747 mmHg 94%
    05:00 +8°C° 0.4 mm 3 m/s 746 mmHg 94%
    06:00 +7°C° 0.4 mm 4 m/s 746 mmHg 94%
    07:00 +8°C° 0.4 mm 4 m/s 745 mmHg 94%
    08:00 +9°C° 2.1 mm 5 m/s 745 mmHg 95%
    09:00 +10°C° 2.1 mm 5 m/s 744 mmHg 95%
    10:00 +12°C° 2.1 mm 5 m/s 743 mmHg 95%
    11:00 +14°C° 0.5 mm 6 m/s 743 mmHg 88%
    12:00 +16°C° 0.5 mm 7 m/s 742 mmHg 80%
    13:00 +18°C° 0.5 mm 8 m/s 742 mmHg 73%
    14:00 +17°C° 2.1 mm 8 m/s 741 mmHg 78%
    15:00 +16°C° 2.1 mm 8 m/s 741 mmHg 83%
    16:00 +15°C° 2.1 mm 8 m/s 740 mmHg 88%
    17:00 +15°C° 1.6 mm 7 m/s 740 mmHg 89%
    18:00 +14°C° 1.6 mm 7 m/s 740 mmHg 91%
    19:00 +14°C° 1.6 mm 7 m/s 740 mmHg 92%
    20:00 +14°C° 1.7 mm 6 m/s 740 mmHg 93%
    21:00 +13°C° 1.7 mm 6 m/s 740 mmHg 93%
    22:00 +13°C° 1.7 mm 6 m/s 740 mmHg 94%
    23:00 +10°C° 0 mm 6 m/s 740 mmHg 94%

    24 Mai, Vineri

    Timp Temperatura Precipitaţii Vânt Presiune Umiditate
    00:00 +8°C° 0 mm 5 m/s 741 mmHg 94%
    01:00 +7°C° 0 mm 5 m/s 741 mmHg 93%
    02:00 +5°C° 0 mm 5 m/s 742 mmHg 92%
    03:00 +4°C° 0 mm 4 m/s 744 mmHg 90%
    04:00 +3°C° 0 mm 4 m/s 745 mmHg 88%
    05:00 +3°C° 0 mm 4 m/s 745 mmHg 83%
    06:00 +4°C° 0 mm 4 m/s 746 mmHg 78%
    07:00 +4°C° 0 mm 4 m/s 747 mmHg 73%
    08:00 +5°C° 0 mm 4 m/s 747 mmHg 67%
    09:00 +7°C° 0 mm 4 m/s 747 mmHg 62%
    10:00 +8°C° 0 mm 4 m/s 748 mmHg 56%
    11:00 +8°C° 0 mm 5 m/s 748 mmHg 56%
    12:00 +9°C° 0 mm 5 m/s 748 mmHg 56%
    13:00 +10°C° 0 mm 5 m/s 748 mmHg 56%
    14:00 +10°C° 0 mm 5 m/s 749 mmHg 55%
    15:00 +10°C° 0 mm 5 m/s 749 mmHg 53%
    16:00 +10°C° 0 mm 5 m/s 749 mmHg 52%
    17:00 +11°C° 0 mm 4 m/s 749 mmHg 56%
    18:00 +10°C° 0 mm 3 m/s 750 mmHg 60%
    19:00 +10°C° 0 mm 3 m/s 750 mmHg 65%
    20:00 +8°C° 0 mm 3 m/s 750 mmHg 67%
    21:00 +7°C° 0 mm 2 m/s 751 mmHg 70%
    22:00 +5°C° 0 mm 2 m/s 751 mmHg 73%
    23:00 +4°C° 0 mm 2 m/s 751 mmHg 73%

    25 Mai, Sâmbătă

    Timp Temperatura Precipitaţii Vânt Presiune Umiditate
    00:00 +4°C° 0 mm 2 m/s 752 mmHg 73%
    01:00 +3°C° 0 mm 2 m/s 752 mmHg 73%
    02:00 +3°C° 0 mm 2 m/s 752 mmHg 74%
    03:00 +3°C° 0 mm 2 m/s 753 mmHg 75%
    04:00 +3°C° 0 mm 1 m/s 753 mmHg 76%
    05:00 +5°C° 0 mm 1 m/s 753 mmHg 72%
    06:00 +5°C° 0 mm 2 m/s 754 mmHg 68%
    07:00 +7°C° 0 mm 2 m/s 754 mmHg 64%
    08:00 +8°C° 0 mm 2 m/s 754 mmHg 59%
    09:00 +10°C° 0 mm 3 m/s 754 mmHg 54%
    10:00 +11°C° 0 mm 4 m/s 754 mmHg 49%
    11:00 +12°C° 0 mm 4 m/s 754 mmHg 48%
    12:00 +13°C° 0 mm 4 m/s 754 mmHg 47%
    13:00 +13°C° 0 mm 4 m/s 754 mmHg 46%
    14:00 +14°C° 0 mm 4 m/s 754 mmHg 46%
    15:00 +14°C° 0 mm 3 m/s 754 mmHg 46%
    16:00 +14°C° 0 mm 3 m/s 754 mmHg 46%
    17:00 +15°C° 0 mm 2 m/s 754 mmHg 51%
    18:00 +14°C° 0 mm 1 m/s 754 mmHg 56%
    19:00 +12°C° 0 mm 0 m/s 754 mmHg 61%
    20:00 +12°C° 0 mm 1 m/s 755 mmHg 63%
    21:00 +10°C° 0 mm 1 m/s 755 mmHg 65%
    22:00 +8°C° 0 mm 2 m/s 755 mmHg 67%
    23:00 +7°C° 0 mm 2 m/s 755 mmHg 68%
    Arată mai mult